| time (UTC) | temp C | wind direction | speed KPH | gust KPH | rain 1hr cm | rain 24hr cm | rain mn cm | humidity % | barometer mb |
| 20260504130515 | 7 | 360 | 3.2 | 4.8 | 0.00 | 0.00 | 0.00 | 49 | 926.9 |
| 20260504110509 | 7 | 360 | 3.2 | 4.8 | 0.00 | 0.00 | 0.00 | 47 | 926.9 |
| 20260504100512 | 7 | 360 | 6.4 | 12.9 | 0.00 | 0.00 | 0.00 | 47 | 927.3 |
| 20260504081527 | 9 | 360 | 20.9 | 29.0 | 0.00 | 0.00 | 0.00 | 36 | 926.9 |
| 20260504081016 | 9 | 360 | 22.5 | 29.0 | 0.00 | 0.00 | 0.00 | 36 | 926.9 |
| 20260504080511 | 9 | 360 | 17.7 | 29.0 | 0.00 | 0.00 | 0.00 | 36 | 926.6 |
| 20260504050512 | 12 | 360 | 37.0 | 51.5 | 0.00 | 0.00 | 0.00 | 28 | 922.7 |
| 20260504045512 | 12 | 360 | 37.0 | 54.7 | 0.00 | 0.00 | 0.00 | 27 | 922.4 |
| 20260504045012 | 13 | 360 | 41.8 | 49.9 | 0.00 | 0.00 | 0.00 | 27 | 921.9 |
| 20260504044536 | 13 | 360 | 22.5 | 33.8 | 0.00 | 0.00 | 0.00 | 26 | 921.9 |
| 20260504044016 | 13 | 360 | 19.3 | 32.2 | 0.00 | 0.00 | 0.00 | 26 | 921.7 |
| 20260504043517 | 13 | 360 | 16.1 | 30.6 | 0.00 | 0.00 | 0.00 | 26 | 921.5 |
| 20260504043037 | 13 | 360 | 12.9 | 17.7 | 0.00 | 0.00 | 0.00 | 26 | 921.4 |
| 20260504042511 | 13 | 360 | 14.5 | 19.3 | 0.00 | 0.00 | 0.00 | 26 | 921.3 |
| 20260504042013 | 13 | 360 | 14.5 | 20.9 | 0.00 | 0.00 | 0.00 | 25 | 921.4 |
| 20260504041539 | 14 | 360 | 14.5 | 20.9 | 0.00 | 0.00 | 0.00 | 25 | 921.4 |
| 20260504041011 | 14 | 360 | 14.5 | 20.9 | 0.00 | 0.00 | 0.00 | 25 | 921.4 |
| 20260504040511 | 15 | 360 | 14.5 | 22.5 | 0.00 | 0.00 | 0.00 | 25 | 921.3 |
| 20260504040040 | 15 | 360 | 16.1 | 22.5 | 0.00 | 0.00 | 0.00 | 24 | 921.2 |
| 20260504035512 | 15 | 360 | 14.5 | 22.5 | 0.00 | 0.00 | 0.00 | 24 | 921.1 |
| 20260504035011 | 15 | 360 | 17.7 | 22.5 | 0.00 | 0.00 | 0.00 | 24 | 921.1 |
| 20260504034543 | 15 | 360 | 16.1 | 27.4 | 0.00 | 0.00 | 0.00 | 24 | 921.1 |
| 20260504034013 | 15 | 360 | 19.3 | 30.6 | 0.00 | 0.00 | 0.00 | 23 | 920.7 |
| 20260504033511 | 16 | 360 | 24.1 | 37.0 | 0.00 | 0.00 | 0.00 | 23 | 920.5 |
| 20260504033038 | 16 | 360 | 27.4 | 37.0 | 0.00 | 0.00 | 0.00 | 22 | 920.3 |
| 20260504032512 | 16 | 360 | 27.4 | 35.4 | 0.00 | 0.00 | 0.00 | 21 | 920.2 |
| 20260504032012 | 16 | 360 | 24.1 | 32.2 | 0.00 | 0.00 | 0.00 | 20 | 920.2 |
| 20260504031533 | 17 | 360 | 22.5 | 30.6 | 0.00 | 0.00 | 0.00 | 18 | 920.2 |
| 20260504031012 | 17 | 360 | 17.7 | 29.0 | 0.00 | 0.00 | 0.00 | 16 | 920.0 |
| 20260504030511 | 17 | 360 | 20.9 | 37.0 | 0.00 | 0.00 | 0.00 | 15 | 919.9 |
| 20260504030033 | 17 | 360 | 27.4 | 37.0 | 0.00 | 0.00 | 0.00 | 14 | 919.5 |
| 20260504025510 | 18 | 360 | 8.0 | 16.1 | 0.00 | 0.00 | 0.00 | 12 | 919.5 |
| 20260504025011 | 19 | 360 | 6.4 | 9.7 | 0.00 | 0.00 | 0.00 | 11 | 919.3 |
| 20260504024541 | 20 | 360 | 3.2 | 19.3 | 0.00 | 0.00 | 0.00 | 12 | 919.3 |
| 20260504024011 | 19 | 360 | 12.9 | 19.3 | 0.00 | 0.00 | 0.00 | 12 | 919.3 |
| 20260504023511 | 20 | 360 | 9.7 | 14.5 | 0.00 | 0.00 | 0.00 | 12 | 919.3 |
| 20260504023035 | 20 | 360 | 9.7 | 16.1 | 0.00 | 0.00 | 0.00 | 12 | 919.2 |
| 20260504022516 | 20 | 360 | 11.3 | 19.3 | 0.00 | 0.00 | 0.00 | 12 | 919.4 |
| 20260504022013 | 21 | 360 | 12.9 | 27.4 | 0.00 | 0.00 | 0.00 | 12 | 919.4 |
| 20260504021537 | 21 | 360 | 17.7 | 29.0 | 0.00 | 0.00 | 0.00 | 11 | 919.3 |
| 20260504021012 | 21 | 360 | 24.1 | 29.0 | 0.00 | 0.00 | 0.00 | 11 | 919.3 |
| 20260504020511 | 21 | 360 | 22.5 | 29.0 | 0.00 | 0.00 | 0.00 | 11 | 919.1 |
| 20260504020035 | 22 | 360 | 17.7 | 25.7 | 0.00 | 0.00 | 0.00 | 11 | 919.1 |
| 20260504015513 | 22 | 360 | 16.1 | 30.6 | 0.00 | 0.00 | 0.00 | 10 | 918.9 |
| 20260504015017 | 22 | 360 | 17.7 | 30.6 | 0.00 | 0.00 | 0.00 | 10 | 919.0 |
| 20260504014538 | 22 | 360 | 25.7 | 30.6 | 0.00 | 0.00 | 0.00 | 10 | 919.1 |
| 20260504014017 | 22 | 360 | 22.5 | 25.7 | 0.00 | 0.00 | 0.00 | 8 | 918.9 |
| 20260504013510 | 22 | 360 | 19.3 | 25.7 | 0.00 | 0.00 | 0.00 | 8 | 919.0 |
| 20260504013040 | 22 | 360 | 19.3 | 32.2 | 0.00 | 0.00 | 0.00 | 8 | 919.1 |
| 20260504012511 | 22 | 360 | 20.9 | 27.4 | 0.00 | 0.00 | 0.00 | 8 | 919.2 |
| 20260504012015 | 23 | 360 | 19.3 | 25.7 | 0.00 | 0.00 | 0.00 | 8 | 919.2 |
| 20260504011535 | 23 | 360 | 20.9 | 32.2 | 0.00 | 0.00 | 0.00 | 7 | 919.2 |
| 20260504011013 | 23 | 360 | 25.7 | 35.4 | 0.00 | 0.00 | 0.00 | 7 | 919.1 |
| 20260504010510 | 23 | 360 | 19.3 | 32.2 | 0.00 | 0.00 | 0.00 | 7 | 919.2 |
| 20260504010037 | 23 | 360 | 22.5 | 33.8 | 0.00 | 0.00 | 0.00 | 6 | 918.9 |
| 20260504005514 | 23 | 360 | 27.4 | 33.8 | 0.00 | 0.00 | 0.00 | 6 | 919.1 |
| 20260504005011 | 23 | 360 | 19.3 | 29.0 | 0.00 | 0.00 | 0.00 | 6 | 919.1 |
| 20260504004535 | 23 | 360 | 19.3 | 33.8 | 0.00 | 0.00 | 0.00 | 6 | 919.3 |
| 20260504004013 | 23 | 360 | 20.9 | 33.8 | 0.00 | 0.00 | 0.00 | 6 | 919.3 |
| 20260504003513 | 23 | 360 | 24.1 | 32.2 | 0.00 | 0.00 | 0.00 | 6 | 919.4 |
| 20260504003041 | 23 | 360 | 8.0 | 30.6 | 0.00 | 0.00 | 0.00 | 6 | 919.4 |
| 20260504002511 | 23 | 360 | 16.1 | 30.6 | 0.00 | 0.00 | 0.00 | 6 | 919.5 |
| 20260504002012 | 23 | 360 | 19.3 | 38.6 | 0.00 | 0.00 | 0.00 | 6 | 919.6 |
| 20260504001536 | 23 | 360 | 24.1 | 43.5 | 0.00 | 0.00 | 0.00 | 6 | 919.5 |
| 20260504001014 | 24 | 360 | 25.7 | 35.4 | 0.00 | 0.00 | 0.00 | 5 | 919.4 |
| 20260504000511 | 23 | 360 | 20.9 | 33.8 | 0.00 | 0.00 | 0.00 | 5 | 919.6 |
| 20260504000042 | 23 | 360 | 24.1 | 33.8 | 0.00 | 0.00 | 0.00 | 5 | 919.4 |
| 20260503235511 | 23 | 360 | 16.1 | 37.0 | 0.00 | 0.00 | 0.00 | 5 | 919.7 |
| 20260503235012 | 23 | 360 | 19.3 | 37.0 | 0.00 | 0.00 | 0.00 | 5 | 919.8 |
| 20260503234538 | 23 | 360 | 25.7 | 35.4 | 0.00 | 0.00 | 0.00 | 4 | 919.8 |
| 20260503234012 | 23 | 360 | 16.1 | 38.6 | 0.00 | 0.00 | 0.00 | 4 | 919.9 |
| 20260503233512 | 23 | 360 | 29.0 | 38.6 | 0.00 | 0.00 | 0.00 | 4 | 919.8 |
| 20260503233039 | 23 | 360 | 25.7 | 40.2 | 0.00 | 0.00 | 0.00 | 4 | 919.8 |
| 20260503232511 | 23 | 360 | 24.1 | 35.4 | 0.00 | 0.00 | 0.00 | 4 | 919.7 |
| 20260503232014 | 23 | 360 | 30.6 | 35.4 | 0.00 | 0.00 | 0.00 | 5 | 919.6 |
| 20260503231535 | 23 | 360 | 11.3 | 19.3 | 0.00 | 0.00 | 0.00 | 5 | 919.7 |
| 20260503231015 | 23 | 360 | 8.0 | 22.5 | 0.00 | 0.00 | 0.00 | 4 | 920.0 |
| 20260503230512 | 23 | 360 | 8.0 | 37.0 | 0.00 | 0.00 | 0.00 | 4 | 920.1 |
| 20260503230032 | 24 | 360 | 20.9 | 37.0 | 0.00 | 0.00 | 0.00 | 4 | 920.0 |
| 20260503225512 | 23 | 360 | 25.7 | 45.1 | 0.00 | 0.00 | 0.00 | 5 | 920.2 |
| 20260503225016 | 23 | 360 | 33.8 | 45.1 | 0.00 | 0.00 | 0.00 | 5 | 920.0 |
| 20260503224542 | 23 | 360 | 20.9 | 33.8 | 0.00 | 0.00 | 0.00 | 5 | 920.2 |
| 20260503224015 | 23 | 360 | 20.9 | 27.4 | 0.00 | 0.00 | 0.00 | 5 | 920.2 |
| 20260503223516 | 23 | 360 | 17.7 | 27.4 | 0.00 | 0.00 | 0.00 | 6 | 920.2 |
| 20260503223038 | 23 | 360 | 14.5 | 38.6 | 0.00 | 0.00 | 0.00 | 6 | 920.5 |
| 20260503222514 | 23 | 360 | 27.4 | 45.1 | 0.00 | 0.00 | 0.00 | 6 | 920.4 |
| 20260503222013 | 23 | 360 | 25.7 | 41.8 | 0.00 | 0.00 | 0.00 | 7 | 920.3 |
| 20260503221540 | 23 | 360 | 29.0 | 41.8 | 0.00 | 0.00 | 0.00 | 6 | 920.4 |
| 20260503221012 | 23 | 360 | 19.3 | 32.2 | 0.00 | 0.00 | 0.00 | 7 | 920.5 |
| 20260503220513 | 23 | 360 | 19.3 | 40.2 | 0.00 | 0.00 | 0.00 | 6 | 920.6 |
| 20260503220039 | 23 | 360 | 27.4 | 40.2 | 0.00 | 0.00 | 0.00 | 6 | 920.6 |
| 20260503215511 | 23 | 360 | 16.1 | 33.8 | 0.00 | 0.00 | 0.00 | 7 | 920.7 |
| 20260503215013 | 23 | 360 | 14.5 | 40.2 | 0.00 | 0.00 | 0.00 | 7 | 920.8 |
| 20260503214533 | 23 | 360 | 30.6 | 40.2 | 0.00 | 0.00 | 0.00 | 7 | 920.5 |
| 20260503214014 | 23 | 360 | 27.4 | 41.8 | 0.00 | 0.00 | 0.00 | 6 | 920.8 |
| 20260503213513 | 23 | 360 | 22.5 | 40.2 | 0.00 | 0.00 | 0.00 | 6 | 920.9 |
| 20260503213048 | 23 | 360 | 25.7 | 41.8 | 0.00 | 0.00 | 0.00 | 6 | 920.9 |
| 20260503212515 | 23 | 360 | 27.4 | 45.1 | 0.00 | 0.00 | 0.00 | 6 | 921.1 |
| 20260503212015 | 23 | 360 | 24.1 | 45.1 | 0.00 | 0.00 | 0.00 | 6 | 921.3 |
| 20260503211541 | 23 | 360 | 22.5 | 35.4 | 0.00 | 0.00 | 0.00 | 6 | 921.6 |
| 20260503211013 | 23 | 360 | 8.0 | 29.0 | 0.00 | 0.00 | 0.00 | 6 | 921.7 |
| 20260503210515 | 23 | 360 | 17.7 | 29.0 | 0.00 | 0.00 | 0.00 | 6 | 921.6 |
| 20260503210037 | 23 | 360 | 11.3 | 27.4 | 0.00 | 0.00 | 0.00 | 7 | 921.7 |
| 20260503205512 | 23 | 360 | 17.7 | 27.4 | 0.00 | 0.00 | 0.00 | 6 | 921.8 |
| 20260503205014 | 22 | 360 | 12.9 | 35.4 | 0.00 | 0.00 | 0.00 | 7 | 921.8 |
| 20260503204546 | 22 | 360 | 19.3 | 35.4 | 0.00 | 0.00 | 0.00 | 7 | 921.9 |
| 20260503204013 | 22 | 360 | 22.5 | 35.4 | 0.00 | 0.00 | 0.00 | 6 | 921.9 |
| 20260503203515 | 22 | 360 | 20.9 | 35.4 | 0.00 | 0.00 | 0.00 | 6 | 921.9 |
| 20260503203045 | 22 | 360 | 14.5 | 35.4 | 0.00 | 0.00 | 0.00 | 5 | 922.1 |
| 20260503202514 | 22 | 360 | 20.9 | 30.6 | 0.00 | 0.00 | 0.00 | 6 | 922.2 |
| 20260503202014 | 22 | 360 | 12.9 | 25.7 | 0.00 | 0.00 | 0.00 | 7 | 922.2 |
| 20260503201544 | 22 | 360 | 14.5 | 33.8 | 0.00 | 0.00 | 0.00 | 7 | 922.3 |
| 20260503201018 | 22 | 360 | 17.7 | 35.4 | 0.00 | 0.00 | 0.00 | 7 | 922.2 |
| 20260503200514 | 22 | 360 | 22.5 | 37.0 | 0.00 | 0.00 | 0.00 | 6 | 922.2 |
| 20260503200049 | 22 | 360 | 19.3 | 37.0 | 0.00 | 0.00 | 0.00 | 7 | 922.3 |
| 20260503195514 | 21 | 360 | 17.7 | 38.6 | 0.00 | 0.00 | 0.00 | 7 | 922.4 |
| 20260503195014 | 22 | 360 | 27.4 | 38.6 | 0.00 | 0.00 | 0.00 | 6 | 922.4 |
| 20260503194553 | 21 | 360 | 14.5 | 40.2 | 0.00 | 0.00 | 0.00 | 8 | 922.5 |
| 20260503194015 | 21 | 360 | 27.4 | 40.2 | 0.00 | 0.00 | 0.00 | 8 | 922.5 |
| 20260503193514 | 21 | 360 | 20.9 | 33.8 | 0.00 | 0.00 | 0.00 | 8 | 922.9 |
| 20260503193050 | 21 | 360 | 20.9 | 35.4 | 0.00 | 0.00 | 0.00 | 8 | 923.0 |
| 20260503192515 | 21 | 360 | 19.3 | 37.0 | 0.00 | 0.00 | 0.00 | 8 | 923.1 |
| 20260503192014 | 21 | 360 | 27.4 | 37.0 | 0.00 | 0.00 | 0.00 | 7 | 923.2 |
| 20260503191544 | 21 | 360 | 25.7 | 37.0 | 0.00 | 0.00 | 0.00 | 8 | 923.3 |
| 20260503191013 | 21 | 360 | 14.5 | 33.8 | 0.00 | 0.00 | 0.00 | 8 | 923.4 |
| 20260503190514 | 20 | 360 | 19.3 | 25.7 | 0.00 | 0.00 | 0.00 | 9 | 923.3 |
| 20260503190038 | 20 | 360 | 16.1 | 38.6 | 0.00 | 0.00 | 0.00 | 9 | 923.4 |
| 20260503185515 | 20 | 360 | 22.5 | 38.6 | 0.00 | 0.00 | 0.00 | 9 | 923.4 |
| 20260503185015 | 20 | 360 | 24.1 | 33.8 | 0.00 | 0.00 | 0.00 | 10 | 923.3 |
| 20260503184603 | 20 | 360 | 17.7 | 27.4 | 0.00 | 0.00 | 0.00 | 10 | 923.3 |
| 20260503184015 | 20 | 360 | 16.1 | 29.0 | 0.00 | 0.00 | 0.00 | 8 | 923.6 |
| 20260503183515 | 20 | 360 | 16.1 | 30.6 | 0.00 | 0.00 | 0.00 | 9 | 923.4 |
| 20260503183059 | 20 | 360 | 16.1 | 25.7 | 0.00 | 0.00 | 0.00 | 10 | 923.5 |
| 20260503182512 | 20 | 360 | 9.7 | 29.0 | 0.00 | 0.00 | 0.00 | 11 | 923.8 |
| 20260503182014 | 20 | 360 | 19.3 | 29.0 | 0.00 | 0.00 | 0.00 | 11 | 923.8 |
| 20260503181551 | 20 | 360 | 19.3 | 29.0 | 0.00 | 0.00 | 0.00 | 11 | 923.9 |
| 20260503181012 | 20 | 360 | 17.7 | 29.0 | 0.00 | 0.00 | 0.00 | 12 | 924.0 |
| 20260503180513 | 20 | 360 | 17.7 | 32.2 | 0.00 | 0.00 | 0.00 | 10 | 924.1 |
| 20260503180049 | 20 | 360 | 20.9 | 32.2 | 0.00 | 0.00 | 0.00 | 11 | 924.2 |
| 20260503175512 | 19 | 360 | 12.9 | 30.6 | 0.00 | 0.00 | 0.00 | 12 | 924.1 |
| 20260503175015 | 19 | 360 | 19.3 | 29.0 | 0.00 | 0.00 | 0.00 | 13 | 923.9 |
| 20260503174551 | 18 | 360 | 3.2 | 27.4 | 0.00 | 0.00 | 0.00 | 12 | 924.1 |
| 20260503174019 | 19 | 360 | 20.9 | 32.2 | 0.00 | 0.00 | 0.00 | 12 | 924.0 |
| 20260503173515 | 19 | 360 | 20.9 | 32.2 | 0.00 | 0.00 | 0.00 | 12 | 924.0 |
| 20260503173048 | 18 | 360 | 8.0 | 25.7 | 0.00 | 0.00 | 0.00 | 13 | 924.2 |
| 20260503172517 | 18 | 360 | 11.3 | 30.6 | 0.00 | 0.00 | 0.00 | 13 | 924.2 |
| 20260503172013 | 18 | 360 | 24.1 | 32.2 | 0.00 | 0.00 | 0.00 | 13 | 924.3 |
| 20260503171608 | 18 | 360 | 24.1 | 35.4 | 0.00 | 0.00 | 0.00 | 13 | 924.0 |
| 20260503171013 | 18 | 360 | 14.5 | 35.4 | 0.00 | 0.00 | 0.00 | 13 | 924.2 |
| 20260503170513 | 18 | 360 | 20.9 | 30.6 | 0.00 | 0.00 | 0.00 | 13 | 924.0 |
| 20260503170103 | 18 | 360 | 6.4 | 32.2 | 0.00 | 0.00 | 0.00 | 14 | 924.3 |
| 20260503150513 | 14 | 360 | 20.9 | 25.7 | 0.00 | 0.00 | 0.00 | 30 | 924.8 |